G4GVZ-1 Weather Reports


Display with metric or nautical units.
time (UTC)temp
F
wind
direction
speed
MPH
gust
MPH
rain 1hr
in
rain 24hr
in
rain mn
in
humidity
%
barometer
mb
20260502184548 54 0 0.0 0.0 0.00 0.29 0.29 93 1010.4
20260502183047 54 0 0.0 0.0 0.01 0.29 0.29 93 1010.5
20260502181549 55 0 0.0 0.0 0.03 0.29 0.29 93 1010.8
20260502163048 59 273 0.0 6.0 0.06 0.06 0.06 82 1011.8
20260502161549 61 273 0.0 3.0 0.03 0.03 0.03 79 1011.9
20260502151548 64 263 2.0 9.0 0.00 0.00 0.00 62 1011.8
20260502123049 67 228 1.0 5.0 0.00 0.00 0.00 57 1014.5
20260502121550 67 220 1.0 7.0 0.00 0.00 0.00 56 1014.5
20260502114549 65 214 1.0 6.0 0.00 0.00 0.00 60 1015.1
20260502113048 64 213 1.0 6.0 0.00 0.00 0.00 61 1015.2
20260502111550 64 213 2.0 7.0 0.00 0.00 0.00 62 1015.5
20260502110049 63 222 1.0 7.0 0.00 0.00 0.00 64 1016.0
20260502104550 63 220 0.0 6.0 0.00 0.00 0.00 64 1015.8
20260502103049 63 220 0.0 4.0 0.00 0.00 0.00 64 1015.9
20260502101549 62 242 2.0 7.0 0.00 0.00 0.00 65 1016.1
20260502070050 53 0 0.0 0.0 0.00 0.00 0.00 87 1017.1
20260502064551 51 0 0.0 0.0 0.00 0.00 0.00 91 1017.2
20260502063050 50 0 0.0 0.0 0.00 0.00 0.00 91 1017.4
20260502061550 49 0 0.0 0.0 0.00 0.00 0.00 92 1017.4
20260502060052 48 0 0.0 0.0 0.00 0.00 0.00 92 1017.3
20260502054552 47 0 0.0 0.0 0.00 0.00 0.00 91 1017.3
20260502053055 47 0 0.0 0.0 0.00 0.00 0.00 90 1017.2
20260502051551 47 0 0.0 0.0 0.00 0.00 0.00 91 1017.3
20260502050051 47 0 0.0 0.0 0.00 0.00 0.00 93 1017.3
20260502044551 47 0 0.0 0.0 0.00 0.00 0.00 91 1017.3
20260502043050 48 0 0.0 0.0 0.00 0.00 0.00 91 1017.5
20260502041552 48 0 0.0 0.0 0.00 0.00 0.00 91 1017.3
20260502040052 48 0 0.0 0.0 0.00 0.00 0.00 89 1017.5
20260502034552 48 0 0.0 0.0 0.00 0.00 0.00 89 1017.6
20260502033051 48 0 0.0 0.0 0.00 0.00 0.00 89 1017.7
20260502031553 49 0 0.0 0.0 0.00 0.00 0.00 88 1017.4
20260502030053 49 0 0.0 0.0 0.00 0.00 0.00 88 1017.5
20260502024551 49 0 0.0 0.0 0.00 0.00 0.00 88 1017.6
20260502023048 49 0 0.0 0.0 0.00 0.00 0.00 88 1017.6
20260502021549 50 0 0.0 0.0 0.00 0.00 0.00 88 1017.8
20260502020048 50 0 0.0 0.0 0.00 0.00 0.00 86 1017.8
20260502014549 50 0 0.0 0.0 0.00 0.00 0.00 86 1017.9
20260502013047 51 0 0.0 0.0 0.00 0.00 0.00 86 1018.0
20260502011547 51 0 0.0 0.0 0.00 0.00 0.00 85 1018.1
20260502010049 51 0 0.0 0.0 0.00 0.00 0.00 85 1018.2
20260502004550 51 0 0.0 0.0 0.00 0.00 0.00 85 1018.4
20260502003155 52 0 0.0 0.0 0.00 0.00 0.00 85 1018.5
20260502003049 52 0 0.0 0.0 0.00 0.00 0.00 85 1018.5
20260502001549 52 0 0.0 0.0 0.00 0.00 0.00 85 1018.6
20260502000300 52 0 0.0 0.0 0.00 0.00 0.00 84 1018.7
20260502000048 52 0 0.0 0.0 0.00 0.00 0.00 84 1018.7
20260501234549 52 0 0.0 0.0 0.00 0.00 0.00 83 1018.8
20260501233048 53 0 0.0 0.0 0.00 0.00 0.00 82 1018.9
20260501231548 53 260 0.0 2.0 0.00 0.00 0.00 81 1019.0
20260501230047 53 260 0.0 4.0 0.00 0.00 0.00 81 1018.8
20260501224548 54 260 0.0 5.0 0.00 0.00 0.00 80 1018.7
20260501223121 54 260 1.0 5.0 0.00 0.00 0.00 80 1018.6
20260501223047 54 260 1.0 5.0 0.00 0.00 0.00 80 1018.6
20260501221547 54 260 1.0 7.0 0.00 0.00 0.00 79 1018.6
20260501220047 54 260 1.0 8.0 0.00 0.00 0.00 79 1018.6
20260501214551 55 260 0.0 8.0 0.00 0.00 0.00 80 1018.6
20260501213049 55 260 0.0 3.0 0.00 0.00 0.00 80 1018.6
20260501211550 55 0 0.0 0.0 0.00 0.00 0.00 81 1018.7
20260501210048 56 260 0.0 4.0 0.00 0.00 0.00 81 1018.7
20260501205318 56 260 1.0 5.0 0.00 0.00 0.00 82 1018.7
20260501204552 56 260 1.0 5.0 0.00 0.00 0.00 82 1018.7
20260501203048 56 260 0.0 7.0 0.00 0.00 0.00 82 1018.7
20260501201548 57 260 0.0 8.0 0.00 0.00 0.00 82 1018.6
20260501200047 57 0 0.0 0.0 0.00 0.00 0.00 82 1018.6
20260501194547 58 260 0.0 5.0 0.00 0.00 0.00 84 1018.5
20260501193048 58 260 0.0 7.0 0.00 0.00 0.00 83 1018.5
20260501191547 59 260 0.0 3.0 0.00 0.00 0.00 82 1018.4
20260501190047 59 260 0.0 3.0 0.00 0.00 0.00 82 1018.6